Date String (YYYY-MM-DD hh:mm:ss) UTC,Instrument flags,absolute air pressure of the measurement (hPa),sample flow rate (lpm),inlet stack bypass flow (lpm),air temperature of the measurement (°C),ambient temperature measured by the external sensor (°C),aerosol sample conditioner tube jacket temperature (°C),OPC LED temperature (°C),internal box temperature (°C),relative humidity of the measurement (%),span deviation,mass concentration of particles derived from Lorenz-Mie calculation of OPC scattering (μg/m³),mass concentration of particles derived from Lorenz-Mie calculation of OPC scattering (μg/m³),mass concentration of particles derived from Lorenz-Mie calculation of OPC scattering (μg/m³)
DateTimeUTC,F1_M11,P_M11,Q1_M11,Q2_M11,T1_M11,T2_M11,T3_M11,T4_M11,T5_M11,U1_M11,ZSPAN_M11,X2_M11,X0_M11,X1_M11
2024-04-24 18:00:00,SystemResetWarning,0828.3,5.00,000.00,025.7,025.0,000.0,034.0,027.6,027.2,0000.6,0008.37,0018.65,0006.97
2024-04-24 18:01:00,SystemResetWarning,0828.3,5.00,000.00,025.7,025.0,000.0,034.1,027.6,027.0,0000.3,0008.38,0018.68,0006.99
2024-04-24 18:02:00,SystemResetWarning,0828.3,5.00,000.00,025.8,025.1,000.0,034.1,027.6,027.0,0000.4,0008.42,0018.63,0007.04
2024-04-24 18:03:00,SystemResetWarning,0828.3,5.00,000.00,025.8,025.1,000.0,034.1,027.7,027.4,0000.8,0008.45,0018.61,0007.07
2024-04-24 18:04:00,SystemResetWarning,0828.2,5.00,000.00,025.8,025.2,000.0,034.1,027.7,027.2,0001.5,0008.45,0018.59,0007.07
2024-04-24 18:05:00,SystemResetWarning,0828.2,5.00,000.00,025.9,025.3,000.0,034.1,027.8,027.4,0001.9,0008.45,0018.62,0007.07
2024-04-24 18:06:00,SystemResetWarning,0828.2,5.00,000.00,025.9,025.3,000.0,034.2,027.8,027.3,0002.0,0008.48,0018.66,0007.08
2024-04-24 18:07:00,SystemResetWarning,0828.1,5.00,000.00,026.0,025.4,000.0,034.2,027.8,028.1,0001.6,0008.52,0017.83,0007.10
2024-04-24 18:08:00,SystemResetWarning,0828.0,5.00,000.00,026.0,025.4,000.0,034.2,027.9,028.0,0001.6,0008.49,0016.72,0007.11
2024-04-24 18:09:00,SystemResetWarning,0828.1,4.99,000.00,026.0,025.4,000.0,034.2,027.9,027.2,0001.9,0008.44,0017.46,0007.11
2024-04-24 18:10:00,SystemResetWarning,0828.1,4.99,000.00,026.0,025.4,000.0,034.3,027.9,027.4,0001.8,0008.43,0018.61,0007.11
2024-04-24 18:11:00,SystemResetWarning,0828.1,5.00,000.00,026.1,025.4,000.0,034.3,027.9,027.3,0001.7,0008.41,0018.64,0007.10
2024-04-24 18:12:00,SystemResetWarning,0828.2,5.01,000.00,026.1,025.5,000.0,034.3,028.0,027.5,0001.4,0008.41,0018.79,0007.07
2024-04-24 18:13:00,SystemResetWarning,0828.2,5.00,000.00,026.1,025.5,000.0,034.4,028.0,026.7,0001.3,0008.39,0019.25,0007.05
2024-04-24 18:14:00,SystemResetWarning,0828.2,5.00,000.00,026.2,025.4,000.0,034.4,027.9,027.1,0001.1,0008.33,0019.46,0007.01
2024-04-24 18:15:00,SystemResetWarning,0828.1,4.98,000.00,026.0,023.9,000.0,034.4,027.1,027.2,0000.9,0008.32,0019.80,0006.99
2024-04-24 18:16:00,SystemResetWarning,0828.1,5.02,000.00,025.5,022.3,000.0,034.4,026.2,028.7,0000.9,0008.25,0019.63,0006.97
2024-04-24 18:17:00,SystemResetWarning,0828.0,5.00,000.00,025.3,022.3,000.0,034.4,026.1,028.5,0000.9,0008.26,0019.68,0006.96
2024-04-24 18:18:00,SystemResetWarning,0828.1,4.99,000.00,025.2,022.7,000.0,034.2,026.3,028.8,0001.2,0008.24,0019.41,0006.96
2024-04-24 18:19:00,SystemResetWarning,0828.1,4.99,000.00,025.2,023.1,000.0,034.1,026.6,029.3,0001.2,0008.29,0019.58,0006.97
2024-04-24 18:20:00,SystemResetWarning,0828.1,5.00,000.00,025.2,023.4,000.0,034.0,026.8,028.9,0000.8,0008.33,0018.84,0006.98
2024-04-24 18:21:00,SystemResetWarning,0828.1,5.02,000.00,025.3,023.7,000.0,033.9,026.9,028.3,0000.5,0008.31,0017.34,0006.99
2024-04-24 18:22:00,SystemResetWarning,0828.1,5.01,000.00,025.3,023.9,000.0,033.9,027.0,028.3,0000.8,0008.32,0017.35,0007.03
2024-04-24 18:23:00,SystemResetWarning,0828.0,5.00,000.00,025.3,024.1,000.0,033.9,027.1,028.4,0001.1,0008.36,0017.38,0007.07
2024-04-24 18:24:00,SystemResetWarning,0828.0,5.00,000.00,025.4,024.3,000.0,033.9,027.2,028.5,0001.0,0008.49,0017.52,0007.13
2024-04-24 18:25:00,SystemResetWarning,0828.0,5.00,000.00,025.4,024.5,000.0,033.9,027.2,028.5,0001.6,0008.68,0017.94,0007.21
2024-04-24 18:26:00,SystemResetWarning,0827.9,5.00,000.00,025.5,024.6,000.0,033.9,027.3,028.5,0001.6,0008.75,0017.76,0007.28
2024-04-24 18:27:00,SystemResetWarning,0827.8,5.00,000.00,025.5,024.7,000.0,033.9,027.4,028.5,0001.1,0008.87,0017.77,0007.36
2024-04-24 18:28:00,SystemResetWarning,0827.8,4.98,000.00,025.6,024.8,000.0,033.9,027.4,028.4,0000.6,0008.93,0017.40,0007.43
2024-04-24 18:29:00,SystemResetWarning,0827.8,5.01,000.00,025.6,024.9,000.0,033.9,027.5,028.1,0000.5,0009.01,0017.30,0007.48
2024-04-24 18:30:00,SystemResetWarning,0827.8,5.01,000.00,025.6,025.0,000.0,033.9,027.5,028.1,0000.2,0009.10,0017.21,0007.55
2024-04-24 18:31:00,SystemResetWarning,0827.7,5.00,000.00,025.7,025.0,000.0,034.0,027.6,028.4,0000.1,0009.23,0017.33,0007.62
2024-04-24 18:32:00,SystemResetWarning,0827.8,5.00,000.00,025.7,025.1,000.0,034.0,027.6,027.8,0000.2,0009.28,0017.32,0007.67
2024-04-24 18:33:00,SystemResetWarning,0827.8,5.00,000.00,025.8,025.2,000.0,034.0,027.7,027.7,0000.5,0009.34,0016.97,0007.72
2024-04-24 18:34:00,SystemResetWarning,0827.8,5.00,000.00,025.8,025.2,000.0,034.0,027.7,027.7,-000.1,0009.42,0017.02,0007.78
2024-04-24 18:35:00,SystemResetWarning,0827.8,5.00,000.00,025.9,025.3,000.0,034.1,027.8,027.2,-000.2,0009.46,0016.84,0007.82
2024-04-24 18:36:00,SystemResetWarning,0827.7,5.00,000.00,025.9,025.3,000.0,034.1,027.8,026.9,-000.7,0009.36,0015.96,0007.84
2024-04-24 18:37:00,SystemResetWarning,0827.7,5.00,000.00,025.9,025.4,000.0,034.1,027.8,027.0,-000.5,0009.34,0015.91,0007.87
2024-04-24 18:38:00,SystemResetWarning,0827.7,4.99,000.00,026.0,025.2,000.0,034.2,027.7,027.4,-000.9,0009.41,0016.94,0007.91
2024-04-24 18:39:00,SystemResetWarning,0827.7,4.98,000.00,025.7,023.6,000.0,034.2,026.8,028.7,-001.0,0009.41,0017.28,0007.95
2024-04-24 18:40:00,SystemResetWarning,0827.6,5.02,000.00,025.3,022.0,000.0,034.2,025.8,029.7,-001.2,0009.42,0016.93,0007.96
2024-04-24 18:41:00,SystemResetWarning,0827.6,5.00,000.00,025.0,022.0,000.0,034.1,025.7,029.9,-000.9,0009.42,0016.89,0007.98
2024-04-24 18:42:00,SystemResetWarning,0827.6,5.01,000.00,024.9,022.4,000.0,033.9,026.0,030.1,-000.5,0009.37,0016.99,0008.00
2024-04-24 18:43:00,SystemResetWarning,0827.6,4.99,000.00,025.0,022.8,000.0,033.8,026.3,029.6,-000.2,0009.38,0017.04,0007.99
2024-04-24 18:44:00,SystemResetWarning,0827.7,4.99,000.00,025.0,023.1,000.0,033.8,026.6,029.4,-000.3,0009.43,0017.26,0007.98
2024-04-24 18:45:00,SystemResetWarning,0827.7,4.99,000.00,025.0,023.4,000.0,033.7,026.7,029.2,0000.2,0009.41,0017.78,0007.99
2024-04-24 18:46:00,SystemResetWarning,0827.7,5.00,000.00,025.1,023.7,000.0,033.7,026.8,028.7,0001.0,0009.42,0019.04,0008.00
2024-04-24 18:47:00,SystemResetWarning,0827.7,5.02,000.00,025.1,023.9,000.0,033.7,026.9,029.2,0001.2,0009.44,0020.16,0008.00
2024-04-24 18:48:00,SystemResetWarning,0827.7,4.99,000.00,025.2,024.1,000.0,033.7,027.0,029.0,0001.0,0009.44,0020.48,0008.00
2024-04-24 18:49:00,SystemResetWarning,0827.7,4.99,000.00,025.2,024.3,000.0,033.7,027.1,028.6,0001.4,0009.44,0020.24,0008.02
2024-04-24 18:50:00,SystemResetWarning,0827.7,5.00,000.00,025.3,024.4,000.0,033.7,027.2,028.4,0001.7,0009.50,0019.95,0008.06
2024-04-24 18:51:00,SystemResetWarning,0827.6,5.00,000.00,025.3,024.6,000.0,033.7,027.2,028.3,0001.9,0009.54,0019.97,0008.12
2024-04-24 18:52:00,SystemResetWarning,0827.6,5.00,000.00,025.4,024.7,000.0,033.7,027.3,029.3,0001.9,0009.55,0019.88,0008.16
2024-04-24 18:53:00,SystemResetWarning,0827.6,5.00,000.00,025.4,024.8,000.0,033.7,027.4,028.8,0002.1,0009.53,0019.95,0008.15
2024-04-24 18:54:00,SystemResetWarning,0827.5,5.00,000.00,025.5,024.9,000.0,033.7,027.4,029.0,0001.7,0009.55,0020.07,0008.18
2024-04-24 18:55:00,SystemResetWarning,0827.5,5.01,000.00,025.5,024.9,000.0,033.8,027.5,028.4,0001.3,0009.56,0019.95,0008.24
2024-04-24 18:56:00,SystemResetWarning,0827.4,4.99,000.00,025.6,025.0,000.0,033.8,027.5,028.4,0001.3,0009.60,0019.41,0008.29
2024-04-24 18:57:00,SystemResetWarning,0827.6,4.99,000.00,025.6,025.1,000.0,033.8,027.6,029.1,0000.9,0009.59,0018.61,0008.33
2024-04-24 18:58:00,SystemResetWarning,0827.5,4.99,000.00,025.7,025.1,000.0,033.9,027.6,028.7,0000.7,0009.56,0017.77,0008.35
2024-04-24 18:59:00,SystemResetWarning,0827.5,5.00,000.00,025.7,025.2,000.0,033.9,027.7,028.0,0000.8,0009.66,0017.73,0008.39
